DELTA 1 DEB, 27788

Orbit data source: Space-Track

DELTA 1 DEB, 27788 is space debris in LEO originally from a launch on Sat, 06 Nov 1965 UTC launched from the Air Force Eastern Test Range (AFETR). Debris objects in space refer to the collection of defunct objects orbiting the Earth. Examples of debris include non-operational satellites, rocket bodies, and fragments generated from explosions, collisions, or faulty payload assembly.

Loading next visibility...
Identifier
27788, 1965-089E
Orbit
LEO
Country
Flag of USUS
Related business
Manufacturer
Unknown
Mission
Spacecraft
Bus & Motor
Unknown
Mass
Unknown
Launch date (UTC)
1965-11-06 (60 years ago)
Launch vehicle
Unknown
Launch site
Air Force Eastern Test Range (AFETR)
Object type
Payload
Rocket body
Debris
Shape & HBR
Unknown shape, 0.1 m
Radar Cross Section
Small (<0.1 m²)

Expand to show TLE details & history
Last TLE update: 1 day ago

TLE from 1 day ago
0 DELTA 1 DEB
1 27788U 65089E   25310.45317309  .00001421  00000-0  70693-2 0  9998
2 27788  59.3831 291.0856 0608391  79.0954   7.7967 12.28626291586526
Epoch: 2025-11-06T10:52Z
TLE epoch observation values (Epoch: 2025-11-06T10:52:34.154Z)
Latitude
59.44973°
Longitude
167.93816°
Altitude
1,086.226 km
Speed
7.532 km/s
True Right ascension
01h 07m 58s
True Declination
59° 18' 20"
Sunlit
Object was in full shadow at epoch
Visualization orbit readout
Latitude
Unknown
Longitude
Unknown
Altitude
Unknown
Speed
Unknown
Apparent Right ascension
Unknown
Apparent Declination
Unknown
Sunlit
N/A
Visualization observer readout
Local Sidereal Time
13:18:33
Azimuth
Unknown
Elevation
Unknown
Doppler factor
Unknown
Orbital elements
Apogee altitude
2,037.194 km
Perigee altitude
1,071.956 km
Semi-major axis
7,932.712 km
Eccentricity
0.06084
Inclination
59.3831°
RAAN
291.0856°
Arg. of periapsis
79.0954°
True anomaly
8.8192°
Mean anomaly
7.7967°
Eccentric anomaly
8.29989°
Mean motion
3.07193 °/min
Orbital period
117.19 mins
BSTAR
0.0070693
Loading maneuver chart data...
Computing Atmospheric mass density...
Loading historical data...
Loading historical data...
Loading historical data...
Loading historical data...
Loading historical data...
Loading historical data...
Loading historical data...

Documentation

Showing up to 5 results
|